Location: Cruquius
(52.3348°N, 4.6319°E)
Time: 20:59:20
(UTC+00:00)

Cosmos 2242 Rocket - Pass Details

Date: 03 October 2021
Orbit: 618 x 651 km, 82.5° (Epoch: 25 October)

Event Time Altitude Azimuth Distance (km) Brightness Sun altitude
Rises 03:25:54 0° 138° (SE) 2,961 7.3 -21.8°
Reaches altitude 10° 03:29:03 10° 114° (ESE) 2,059 6.8 -21.3°
Maximum altitude 03:31:32 15° 81° (E) 1,774 6.9 -21.0°
Drops below altitude 10° 03:34:01 10° 48° (NE) 2,069 7.3 -20.6°
Sets 03:37:11 0° 25° (NNE) 2,985 7.8 -20.2°
